User: anonymous   Login
Location: Newark
(45.4422°N, 16.2769°E)
Time: 04:22:24
(UTC+00:00)
Language:

Tiros 1 despin weight - Orbit

View from above orbital plane
View from above orbital plane
View from above satellite
View from above satellite

Ground track
Ground track

The orbit data is extracted from the following two-line orbital elements,

1   115U 60002D   19344.39514176 -.00000111 +00000-0 +13957-4 0  9995
2   115 048.1663 108.0963 0034359 132.3044 228.0789 14.83516249163598
Epoch (UTC): 10 December 2019 09:29:00
Eccentricity: 0.0034359
inclination: 48.1663°
perigee height: 594 km
apogee height: 642 km
right ascension of ascending node: 108.0963°
argument of perigee: 132.3044°
revolutions per day: 14.83516249
mean anomaly at epoch: 228.0789°
orbit number at epoch: 16359

The dashed part of the orbit path shows where the satellite is in the earth's shadow,  

DLR